Location: Newark
(33.6439°N, 114.9881°W)
Time: 23:56:34
(UTC+00:00)

Altair - Visible Passes

Search period start: 20 July 2019 00:00
Search period end: 30 July 2019 00:00
Orbit: 1501 x 1683 km, 47.2° (Epoch: 19 July)

Date Brightness Start Highest point End Pass type
(mag) Time Alt. Az. Time Alt. Az. Time Alt. Az.
20 Jul 8.3 03:30:57 10° WNW 03:39:45 45° SW 03:48:52 10° SSE visible
21 Jul 8.3 03:05:42 10° WNW 03:14:37 49° SW 03:23:53 10° SSE visible
22 Jul 9.6 04:51:26 10° WSW 04:52:55 10° WSW 04:54:24 10° SW visible
23 Jul 9.5 04:24:23 10° W 04:27:51 12° WSW 04:31:23 10° SW visible
24 Jul 9.5 03:58:13 10° W 04:02:47 14° WSW 04:07:27 10° SSW visible
25 Jul 9.5 03:32:20 10° W 03:37:43 17° SW 03:43:14 10° SSW visible
26 Jul 9.4 03:06:38 10° W 03:12:39 19° SW 03:18:50 10° SSW visible
